Miscellaneous Local Product
Issued by NWS North Platte, NE

Home | Current Version | Previous Version | Graphics & Text | Print | Product List | Glossary On
Versions: 1 2 3 4 5 6 7 8 9 10 11 12 13 14 15 16 17 18 19 20 21 22 23 24 25 26 27 28 29 30 31 32 33 34 35 36 37 38 39 40 41 42 43 44 45 46 47 48 49 50
000
AXUS43 KLBF 212010
MISLBF


WESTERN AND NORTH CENTRAL NEBRASKA HOURLY WEATHER ROUNDUP
NATIONAL WEATHER SERVICE NORTH PLATTE NE
300 PM CDT SUN SEP 21 2014

***STATIONS NOT REPORTING VARIABLES SUCH AS SKY/WEATHER OR
PRESSURE ARE PROVIDED BY THE NEBRASKA DEPARTMENT OF
ROADS...RAWS...AND APRS NETWORKS...AND ARE NOT UNDER
NATIONAL WEATHER SERVICE QUALITY CONTROL***

...OBSERVATIONS IN AND NEAR THE EASTERN PANHANDLE OF NEBRASKA...

CITY           SKY/WX    TMP DP  RH WIND       PRES   REMARKS
PINE RIDGE     SUNNY     73  39  29 VRB5      30.31F
CHADRON        SUNNY     75  40  28 E5        30.28F
ALLIANCE       MOSUNNY   74  38  27 E6        30.31F
SIDNEY         MOSUNNY   73  38  27 S8        30.34F
WHITECLAY        N/A     73  40  29 N3          N/A
RUSHVILLE        N/A     77  24  14 S5          N/A
CRESCENT LAKE    N/A     75  39  27 E3          N/A
LISCO            N/A     75  30  19 CALM        N/A
BIG SPRINGS      N/A     71  41  34 E3          N/A
$$

...OBSERVATIONS IN NORTH CENTRAL NEBRASKA...

CITY           SKY/WX    TMP DP  RH WIND       PRES   REMARKS
VALENTINE      SUNNY     73  36  25 N5        30.30F
THEDFORD       SUNNY     74  41  30 NE6       30.31F
AINSWORTH      SUNNY     70  38  31 N9        30.30F
O`NEILL        SUNNY     71  46  40 N12G18    30.28F
ORD            SUNNY     72  41  32 VRB6G20   30.26F
BROKEN BOW     SUNNY     76  36  23 N10G16    30.28F
SPRINGVIEW       N/A     71  41  34 NW8G15      N/A
ROSE             N/A     76  45  33 E7          N/A
NEWPORT          N/A     72  41  32 S7          N/A
COMSTOCK         N/A     79  40  24 E7          N/A
$$

...OBSERVATIONS IN SOUTHWEST NEBRASKA AND FAR NORTHEAST COLORADO...

CITY           SKY/WX    TMP DP  RH WIND       PRES   REMARKS
WRAY           FAIR      75  36  23 E7        30.33F
HOLYOKE        FAIR      79  41  25 SE8       30.32F
IMPERIAL       PTSUNNY   73  36  25 VRB6      30.32F
OGALLALA       SUNNY     75  40  28 CALM      30.31F
NORTH PLATTE   SUNNY     75  39  27 MISG      30.29F
MCCOOK         SUNNY     77  37  23 NE7       30.30F
LEXINGTON      SUNNY     74  41  29 N7        30.28F
PAXTON           N/A     74  41  30 CALM        N/A
SUTHERLAND       N/A     80  34  19 E7          N/A
BRADY            N/A     74  44  34 CALM        N/A
GOTHENBURG       N/A     71  34  26 N10         N/A
CALLAWAY         N/A     73  44  35 NW9         N/A
$$

...SOME WEATHER OBSERVATIONS FROM AROUND THE REGION...

CITY           SKY/WX    TMP DP  RH WIND       PRES   REMARKS
DENVER         CLOUDY    74  51  44 S10       30.29F
LARAMIE        SUNNY     71  43  36 S17G24    30.34F
CHEYENNE       MOSUNNY   70  44  39 S16G25    30.34F
SCOTTSBLUFF    SUNNY     74  39  28 SE13      30.31F
RAPID CITY     SUNNY     72  37  28 E8        30.30F
PIERRE         SUNNY     72  41  32 NW12      30.26F
WINNER         FAIR      74  39  28 N13G22    30.27F
SIOUX FALLS    PTSUNNY   69  45  41 N13G23    30.23S
OMAHA          MOSUNNY   72  47  40 N17G25    30.20F
GRAND ISLAND   SUNNY     75  41  29 N16G25    30.26F
KANSAS CITY    MOSUNNY   76  48  37 N12G23    30.15F
WICHITA        MOSUNNY   84  44  24 N15G24    30.19F
HAYS           SUNNY     77  43  29 NE8G18    30.26F
LIBERAL        SUNNY     82  45  26 E15       30.25F
GOODLAND       CLOUDY    73  37  27 E8        30.33F
$$



USA.gov is the U.S. government's official web portal to all federal, state and local government web resources and services.